AMX5298 MMGL-MMUN

Flight info

Callsign AMX5298
Flight time N/A
Altitude 35000
Route FEIS1B/29R FEISE J25 SLP UT147 TMN DCT RAULS UT23 LIDAM DCT PERGO DCT XUDUN XUDUN1A
Aircraft B738/M-SDE2E3FGHIRWXY/LB1

Departure

Time N/A
Airport Guadalajara International Airport (MMGL)

Arrival

Time 2026-05-03 22:24
Airport Cancún International Airport (MMUN)
Time Latitude Longitude Altitude Speed Heading
2026-05-03 20:15 21.39416 -102.12817 34988 ft 449 kts 52°
2026-05-03 20:15 21.43270 -102.07522 34998 ft 450 kts 52°
2026-05-03 20:16 21.47106 -102.02245 35000 ft 445 kts 52°
2026-05-03 20:16 21.50911 -101.97005 35000 ft 446 kts 52°
2026-05-03 20:17 21.54723 -101.91751 35000 ft 446 kts 52°
2026-05-03 20:17 21.58511 -101.86525 35000 ft 446 kts 52°
2026-05-03 20:18 21.62313 -101.81274 35000 ft 446 kts 52°
2026-05-03 20:18 21.66130 -101.76011 35000 ft 446 kts 52°
2026-05-03 20:19 21.69935 -101.70751 35000 ft 446 kts 52°
2026-05-03 20:19 21.73738 -101.65479 35000 ft 446 kts 52°
2026-05-03 20:20 21.77502 -101.60253 35000 ft 446 kts 52°
2026-05-03 20:20 21.81307 -101.54968 35000 ft 446 kts 52°
2026-05-03 20:21 21.85106 -101.49697 35000 ft 446 kts 52°
2026-05-03 20:21 21.88900 -101.44426 35000 ft 446 kts 52°
2026-05-03 20:22 21.92697 -101.39135 35000 ft 446 kts 52°
2026-05-03 20:22 21.96460 -101.33884 35000 ft 446 kts 52°
2026-05-03 20:23 22.00245 -101.28598 35000 ft 446 kts 52°
2026-05-03 20:23 22.04034 -101.23308 35000 ft 446 kts 52°
2026-05-03 20:24 22.07825 -101.18023 35000 ft 446 kts 52°
2026-05-03 20:24 22.11614 -101.12732 35000 ft 446 kts 52°
2026-05-03 20:25 22.15393 -101.07436 35000 ft 446 kts 52°
2026-05-03 20:25 22.19144 -101.02171 35000 ft 446 kts 52°
2026-05-03 20:26 22.22921 -100.96795 35045 ft 448 kts 58°
2026-05-03 20:26 22.24274 -100.93778 35077 ft 449 kts 73°
2026-05-03 20:26 22.24896 -100.90468 35120 ft 451 kts 87°
2026-05-03 20:27 22.24714 -100.83651 35181 ft 459 kts 96°
2026-05-03 20:27 22.24076 -100.76774 35209 ft 465 kts 97°
2026-05-03 20:28 22.23409 -100.69891 35181 ft 458 kts 97°
2026-05-03 20:28 22.22742 -100.63089 35187 ft 456 kts 97°
2026-05-03 20:29 22.22064 -100.56226 35209 ft 464 kts 97°
2026-05-03 20:29 22.21379 -100.49300 35204 ft 463 kts 97°
2026-05-03 20:30 22.20696 -100.42447 35195 ft 457 kts 97°
2026-05-03 20:30 22.20030 -100.35695 35186 ft 455 kts 97°
2026-05-03 20:31 22.19359 -100.28908 35181 ft 454 kts 97°
2026-05-03 20:31 22.18683 -100.22182 35157 ft 448 kts 97°
2026-05-03 20:32 22.18005 -100.15504 35146 ft 447 kts 97°
2026-05-03 20:32 22.17325 -100.08826 35143 ft 448 kts 97°
2026-05-03 20:33 22.16647 -100.02165 35121 ft 445 kts 96°
2026-05-03 20:33 22.15971 -99.95575 35104 ft 445 kts 96°
2026-05-03 20:34 22.15286 -99.88935 35096 ft 445 kts 96°
2026-05-03 20:34 22.14596 -99.82290 35084 ft 446 kts 96°
2026-05-03 20:35 22.13903 -99.75626 35061 ft 447 kts 96°
2026-05-03 20:35 22.13206 -99.68959 35050 ft 447 kts 96°
2026-05-03 20:36 22.12521 -99.62293 35045 ft 447 kts 96°
2026-05-03 20:36 22.11840 -99.55676 35032 ft 448 kts 96°
2026-05-03 20:37 22.11145 -99.48999 35024 ft 448 kts 96°
2026-05-03 20:37 22.10446 -99.42338 35021 ft 447 kts 96°
2026-05-03 20:38 22.09744 -99.35676 35015 ft 446 kts 96°
2026-05-03 20:38 22.09161 -99.30165 35004 ft 444 kts 96°
2026-05-03 20:39 22.08458 -99.23558 35000 ft 444 kts 96°
2026-05-03 20:39 22.07636 -99.15857 35000 ft 444 kts 96°
2026-05-03 20:40 22.07054 -99.10312 35001 ft 445 kts 96°
2026-05-03 20:40 22.06344 -99.03689 35001 ft 445 kts 96°
2026-05-03 20:41 22.05629 -98.97100 35000 ft 444 kts 97°
2026-05-03 20:41 22.04908 -98.90487 35000 ft 444 kts 97°
2026-05-03 20:42 22.04180 -98.83827 35005 ft 446 kts 97°
2026-05-03 20:42 22.04052 -98.77156 35008 ft 451 kts 88°
2026-05-03 20:43 22.04424 -98.70400 35007 ft 451 kts 87°
2026-05-03 20:43 22.04802 -98.63675 35004 ft 452 kts 87°
2026-05-03 20:44 22.05181 -98.56830 35009 ft 461 kts 87°
2026-05-03 20:44 22.05559 -98.49916 35008 ft 462 kts 87°
2026-05-03 20:45 22.05931 -98.43079 35011 ft 459 kts 87°
2026-05-03 20:45 22.06317 -98.36285 35004 ft 450 kts 87°
2026-05-03 20:46 22.06688 -98.29600 35004 ft 445 kts 87°
2026-05-03 20:46 22.07052 -98.22933 35004 ft 446 kts 87°
2026-05-03 20:47 22.07412 -98.16260 35003 ft 446 kts 86°
2026-05-03 20:47 22.07768 -98.09588 35002 ft 446 kts 86°
2026-05-03 20:48 22.08118 -98.02953 35002 ft 447 kts 86°
2026-05-03 20:48 22.08469 -97.96264 35002 ft 447 kts 86°
2026-05-03 20:49 22.08816 -97.89570 34999 ft 447 kts 86°
2026-05-03 20:49 22.09162 -97.82872 34996 ft 447 kts 87°
2026-05-03 20:50 22.09500 -97.76245 34988 ft 446 kts 87°
2026-05-03 20:50 22.09839 -97.69563 34986 ft 447 kts 87°
2026-05-03 20:51 22.10175 -97.62879 34985 ft 446 kts 87°
2026-05-03 20:51 22.10507 -97.56214 34990 ft 445 kts 87°
2026-05-03 20:52 22.10838 -97.49538 34993 ft 445 kts 86°
2026-05-03 20:52 22.11162 -97.42926 34999 ft 444 kts 87°
2026-05-03 20:53 22.11487 -97.36244 35000 ft 444 kts 87°
2026-05-03 20:53 22.11808 -97.29587 35000 ft 444 kts 87°
2026-05-03 20:54 22.12126 -97.22939 35000 ft 444 kts 87°
2026-05-03 20:54 22.12596 -97.13016 35000 ft 444 kts 87°
2026-05-03 20:55 22.12907 -97.06372 35000 ft 444 kts 87°
2026-05-03 20:55 22.13215 -96.99738 35000 ft 444 kts 87°
2026-05-03 20:56 22.13522 -96.93084 35000 ft 444 kts 87°
2026-05-03 20:56 22.13832 -96.86432 35000 ft 444 kts 87°
2026-05-03 20:57 22.14140 -96.79793 35000 ft 444 kts 87°
2026-05-03 20:57 22.14436 -96.73139 35000 ft 445 kts 87°
2026-05-03 20:58 22.14727 -96.66482 35000 ft 444 kts 87°
2026-05-03 20:58 22.15013 -96.59870 35000 ft 444 kts 87°
2026-05-03 20:59 22.15150 -96.53225 35000 ft 445 kts 93°
2026-05-03 20:59 22.14518 -96.46563 35000 ft 447 kts 97°
2026-05-03 21:00 22.13904 -96.41028 35000 ft 447 kts 97°
2026-05-03 21:00 22.13047 -96.33299 35000 ft 447 kts 97°
2026-05-03 21:01 22.12309 -96.26651 35001 ft 447 kts 97°
2026-05-03 21:01 22.11569 -96.19997 35000 ft 447 kts 97°
2026-05-03 21:02 22.10840 -96.13346 35000 ft 446 kts 97°
2026-05-03 21:02 22.10120 -96.06753 35000 ft 446 kts 97°
2026-05-03 21:03 22.09386 -96.00096 35000 ft 446 kts 97°
2026-05-03 21:03 22.08648 -95.93453 35000 ft 446 kts 97°
2026-05-03 21:04 22.07905 -95.86806 35000 ft 446 kts 97°
2026-05-03 21:04 22.07160 -95.80165 35000 ft 446 kts 97°
2026-05-03 21:05 22.06412 -95.73526 35000 ft 446 kts 97°
2026-05-03 21:05 22.05666 -95.66927 35000 ft 446 kts 97°
2026-05-03 21:06 22.04913 -95.60292 35000 ft 446 kts 97°
2026-05-03 21:06 22.04157 -95.53657 35000 ft 446 kts 97°
2026-05-03 21:07 22.03402 -95.47056 35000 ft 446 kts 97°
2026-05-03 21:07 22.02641 -95.40426 35000 ft 446 kts 97°
2026-05-03 21:08 22.01875 -95.33745 35000 ft 446 kts 97°
2026-05-03 21:08 22.01118 -95.27111 35000 ft 446 kts 97°
2026-05-03 21:09 22.00354 -95.20521 35000 ft 446 kts 97°
2026-05-03 21:09 21.99578 -95.13898 35000 ft 446 kts 97°
2026-05-03 21:10 21.98799 -95.07263 35000 ft 446 kts 97°
2026-05-03 21:10 21.98019 -95.00638 35000 ft 446 kts 97°
2026-05-03 21:11 21.97239 -94.94018 34999 ft 446 kts 97°
2026-05-03 21:11 21.96451 -94.87378 35000 ft 446 kts 97°
2026-05-03 21:12 21.95666 -94.80794 35000 ft 446 kts 97°
2026-05-03 21:12 21.94874 -94.74177 35000 ft 446 kts 97°
2026-05-03 21:13 21.94077 -94.67554 35000 ft 446 kts 97°
2026-05-03 21:13 21.93287 -94.60929 35000 ft 446 kts 97°
2026-05-03 21:14 21.92504 -94.54299 35000 ft 446 kts 97°
2026-05-03 21:14 21.91715 -94.47677 35000 ft 446 kts 97°
2026-05-03 21:15 21.90927 -94.41105 35000 ft 446 kts 97°
2026-05-03 21:15 21.90130 -94.34491 35000 ft 446 kts 97°
2026-05-03 21:16 21.89327 -94.27869 35000 ft 446 kts 97°
2026-05-03 21:16 21.88523 -94.21257 35000 ft 446 kts 97°
2026-05-03 21:17 21.87850 -94.15749 35000 ft 446 kts 97°
2026-05-03 21:17 21.86909 -94.08069 35000 ft 446 kts 97°
2026-05-03 21:18 21.86104 -94.01524 35000 ft 446 kts 97°
2026-05-03 21:18 21.85293 -93.94951 35000 ft 446 kts 97°
2026-05-03 21:19 21.84468 -93.88295 35000 ft 446 kts 97°
2026-05-03 21:19 21.83645 -93.81671 35000 ft 446 kts 97°
2026-05-03 21:20 21.82823 -93.75079 35000 ft 446 kts 97°
2026-05-03 21:20 21.81999 -93.68487 35000 ft 443 kts 97°
2026-05-03 21:21 21.81175 -93.61920 35000 ft 443 kts 97°
2026-05-03 21:21 21.80347 -93.55346 35000 ft 443 kts 97°
2026-05-03 21:22 21.79524 -93.48830 34999 ft 442 kts 98°
2026-05-03 21:22 21.78694 -93.42283 35000 ft 442 kts 98°
2026-05-03 21:23 21.77861 -93.35727 35000 ft 442 kts 98°
2026-05-03 21:23 21.77024 -93.29169 35000 ft 442 kts 98°
2026-05-03 21:24 21.76192 -93.22663 35000 ft 442 kts 98°
2026-05-03 21:24 21.75352 -93.16118 35000 ft 442 kts 98°
2026-05-03 21:25 21.74508 -93.09563 35000 ft 442 kts 98°
2026-05-03 21:25 21.73662 -93.03018 35000 ft 442 kts 98°
2026-05-03 21:26 21.72814 -92.96475 35000 ft 442 kts 98°
2026-05-03 21:26 21.71951 -92.89837 35000 ft 442 kts 98°
2026-05-03 21:27 21.71110 -92.83384 35000 ft 442 kts 98°
2026-05-03 21:27 21.70255 -92.76846 35000 ft 442 kts 98°
2026-05-03 21:28 21.69396 -92.70302 35000 ft 442 kts 98°
2026-05-03 21:28 21.68560 -92.63758 35000 ft 442 kts 96°
2026-05-03 21:29 21.68095 -92.57176 35000 ft 442 kts 94°
2026-05-03 21:29 21.67679 -92.50595 35000 ft 442 kts 94°
2026-05-03 21:30 21.67260 -92.44049 35000 ft 442 kts 94°
2026-05-03 21:30 21.66834 -92.37461 35000 ft 442 kts 94°
2026-05-03 21:31 21.66405 -92.30872 35000 ft 442 kts 94°
2026-05-03 21:31 21.65982 -92.24287 35000 ft 442 kts 94°
2026-05-03 21:32 21.65565 -92.17701 35000 ft 442 kts 94°
2026-05-03 21:32 21.65141 -92.11116 35000 ft 442 kts 94°
2026-05-03 21:33 21.64713 -92.04538 35000 ft 441 kts 94°
2026-05-03 21:33 21.64283 -91.97995 35000 ft 441 kts 94°
2026-05-03 21:34 21.63847 -91.91415 35000 ft 441 kts 94°
2026-05-03 21:34 21.63409 -91.84837 35000 ft 441 kts 94°
2026-05-03 21:35 21.62968 -91.78266 35000 ft 441 kts 94°
2026-05-03 21:35 21.62523 -91.71677 35000 ft 441 kts 94°
2026-05-03 21:36 21.62079 -91.65143 35000 ft 441 kts 94°
2026-05-03 21:36 21.61629 -91.58564 35000 ft 441 kts 94°
2026-05-03 21:37 21.61180 -91.52033 35000 ft 441 kts 94°
2026-05-03 21:37 21.60724 -91.45446 35000 ft 441 kts 94°
2026-05-03 21:38 21.60265 -91.38845 35000 ft 441 kts 94°
2026-05-03 21:38 21.59805 -91.32271 35000 ft 441 kts 94°
2026-05-03 21:39 21.59345 -91.25742 35000 ft 441 kts 94°
2026-05-03 21:39 21.58880 -91.19171 35000 ft 441 kts 94°
2026-05-03 21:40 21.58413 -91.12596 35000 ft 441 kts 94°
2026-05-03 21:40 21.57943 -91.06028 35000 ft 441 kts 94°
2026-05-03 21:41 21.57471 -90.99472 35000 ft 441 kts 94°
2026-05-03 21:41 21.56995 -90.92888 35000 ft 441 kts 94°
2026-05-03 21:42 21.56521 -90.86372 35000 ft 441 kts 94°
2026-05-03 21:42 21.56040 -90.79801 35000 ft 441 kts 94°
2026-05-03 21:43 21.55555 -90.73201 35000 ft 441 kts 94°
2026-05-03 21:43 21.55069 -90.66629 35000 ft 441 kts 95°
2026-05-03 21:44 21.54584 -90.60101 35000 ft 441 kts 95°
2026-05-03 21:44 21.54091 -90.53502 35000 ft 441 kts 95°
2026-05-03 21:45 21.53597 -90.46936 35000 ft 441 kts 95°
2026-05-03 21:45 21.53102 -90.40369 35000 ft 441 kts 95°
2026-05-03 21:46 21.52604 -90.33819 35000 ft 441 kts 95°
2026-05-03 21:46 21.52103 -90.27249 35000 ft 441 kts 95°
2026-05-03 21:47 21.51601 -90.20695 35000 ft 441 kts 95°
2026-05-03 21:47 21.51095 -90.14137 35000 ft 441 kts 95°
2026-05-03 21:48 21.50587 -90.07580 35000 ft 441 kts 95°
2026-05-03 21:48 21.50080 -90.01064 34999 ft 441 kts 95°
2026-05-03 21:49 21.49567 -89.94511 35000 ft 441 kts 95°
2026-05-03 21:49 21.49051 -89.87960 35000 ft 441 kts 95°
2026-05-03 21:50 21.48618 -89.82470 35000 ft 441 kts 95°
2026-05-03 21:50 21.48013 -89.74856 35000 ft 440 kts 95°
2026-05-03 21:51 21.47490 -89.68307 35000 ft 440 kts 95°
2026-05-03 21:51 21.47053 -89.62861 35000 ft 440 kts 95°
2026-05-03 21:52 21.46439 -89.55238 35000 ft 440 kts 95°
2026-05-03 21:52 21.45911 -89.48718 34663 ft 434 kts 95°
2026-05-03 21:53 21.45651 -89.45519 34307 ft 428 kts 95°
2026-05-03 21:53 21.45479 -89.43413 34014 ft 425 kts 95°
2026-05-03 21:53 21.45222 -89.40264 33578 ft 422 kts 95°
2026-05-03 21:53 21.44966 -89.37137 33143 ft 419 kts 95°
2026-05-03 21:54 21.44711 -89.34025 32712 ft 416 kts 95°
2026-05-03 21:54 21.44458 -89.30944 32285 ft 414 kts 95°
2026-05-03 21:54 21.44205 -89.27866 31808 ft 413 kts 96°
2026-05-03 21:54 21.43953 -89.24818 31373 ft 411 kts 96°
2026-05-03 21:55 21.43701 -89.21762 30949 ft 409 kts 96°
2026-05-03 21:55 21.43451 -89.18756 30537 ft 407 kts 96°
2026-05-03 21:55 21.43201 -89.15739 30130 ft 405 kts 96°
2026-05-03 21:55 21.42951 -89.12739 29731 ft 403 kts 96°
2026-05-03 21:56 21.42702 -89.09753 29332 ft 401 kts 96°
2026-05-03 21:56 21.42453 -89.06778 28927 ft 398 kts 96°
2026-05-03 21:56 21.42207 -89.03831 28529 ft 396 kts 96°
2026-05-03 21:56 21.41960 -89.00898 28130 ft 393 kts 96°
2026-05-03 21:57 21.41715 -88.97984 27731 ft 391 kts 96°
2026-05-03 21:57 21.41472 -88.95094 27335 ft 389 kts 96°
2026-05-03 21:57 21.41232 -88.92248 26944 ft 386 kts 95°
2026-05-03 21:57 21.40990 -88.89394 26551 ft 384 kts 95°
2026-05-03 21:58 21.40748 -88.86538 26156 ft 382 kts 95°
2026-05-03 21:58 21.40508 -88.83708 25764 ft 380 kts 95°
2026-05-03 21:58 21.40266 -88.80868 25373 ft 377 kts 95°
2026-05-03 21:58 21.40028 -88.78072 24986 ft 375 kts 95°
2026-05-03 21:59 21.39800 -88.75297 24601 ft 373 kts 95°
2026-05-03 21:59 21.39576 -88.72533 24216 ft 371 kts 95°
2026-05-03 21:59 21.39348 -88.69786 23831 ft 368 kts 95°
2026-05-03 21:59 21.39119 -88.67061 23449 ft 366 kts 95°
2026-05-03 22:00 21.38888 -88.64348 23069 ft 364 kts 95°
2026-05-03 22:00 21.38656 -88.61642 22689 ft 362 kts 95°
2026-05-03 22:00 21.38426 -88.58960 22312 ft 360 kts 95°
2026-05-03 22:00 21.38196 -88.56292 22046 ft 355 kts 95°
2026-05-03 22:01 21.37970 -88.53685 21980 ft 347 kts 95°
2026-05-03 22:01 21.37754 -88.51178 21951 ft 338 kts 95°
2026-05-03 22:01 21.37541 -88.48715 21946 ft 327 kts 95°
2026-05-03 22:01 21.37335 -88.46321 21930 ft 316 kts 95°
2026-05-03 22:02 21.37137 -88.44004 21802 ft 309 kts 95°
2026-05-03 22:02 21.36897 -88.41678 21168 ft 320 kts 98°
2026-05-03 22:02 21.36481 -88.39294 20528 ft 330 kts 102°
2026-05-03 22:02 21.35979 -88.36906 20352 ft 324 kts 103°
2026-05-03 22:03 21.35471 -88.34615 20222 ft 316 kts 103°
2026-05-03 22:03 21.34972 -88.32346 20112 ft 308 kts 103°
2026-05-03 22:03 21.34492 -88.30138 20042 ft 299 kts 103°
2026-05-03 22:03 21.34032 -88.28005 19973 ft 291 kts 103°
2026-05-03 22:04 21.33584 -88.25920 19957 ft 283 kts 103°
2026-05-03 22:04 21.33148 -88.23885 19955 ft 277 kts 103°
2026-05-03 22:04 21.32719 -88.21877 19961 ft 277 kts 103°
2026-05-03 22:04 21.32287 -88.19852 19967 ft 280 kts 103°
2026-05-03 22:05 21.31851 -88.17809 19968 ft 283 kts 103°
2026-05-03 22:05 21.31412 -88.15743 19967 ft 284 kts 102°
2026-05-03 22:05 21.30978 -88.13705 19966 ft 283 kts 102°
2026-05-03 22:05 21.30535 -88.11622 19969 ft 283 kts 103°
2026-05-03 22:06 21.30105 -88.09598 19978 ft 282 kts 103°
2026-05-03 22:06 21.29670 -88.07550 19985 ft 282 kts 103°
2026-05-03 22:06 21.29226 -88.05505 19990 ft 282 kts 103°
2026-05-03 22:06 21.28790 -88.03503 19980 ft 282 kts 103°
2026-05-03 22:07 21.28329 -88.01392 19592 ft 289 kts 103°
2026-05-03 22:07 21.27856 -87.99230 18906 ft 305 kts 103°
2026-05-03 22:07 21.27356 -87.96957 18119 ft 321 kts 103°
2026-05-03 22:07 21.26844 -87.94629 17508 ft 330 kts 103°
2026-05-03 22:08 21.26309 -87.92204 17130 ft 329 kts 103°
2026-05-03 22:08 21.25793 -87.89869 16985 ft 321 kts 103°
2026-05-03 22:08 21.25284 -87.87569 16907 ft 312 kts 103°
2026-05-03 22:08 21.24789 -87.85329 16706 ft 307 kts 103°
2026-05-03 22:09 21.24302 -87.83131 16475 ft 303 kts 103°
2026-05-03 22:09 21.23818 -87.80944 16235 ft 300 kts 103°
2026-05-03 22:09 21.23334 -87.78760 15987 ft 298 kts 103°
2026-05-03 22:10 21.22399 -87.74544 15777 ft 281 kts 103°
2026-05-03 22:10 21.22056 -87.72515 15729 ft 275 kts 95°
2026-05-03 22:10 21.21980 -87.70472 15677 ft 275 kts 90°
2026-05-03 22:10 21.21995 -87.68479 15577 ft 278 kts 89°
2026-05-03 22:11 21.22031 -87.66388 15288 ft 280 kts 89°
2026-05-03 22:11 21.22065 -87.64292 14949 ft 282 kts 89°
2026-05-03 22:11 21.22096 -87.62188 14574 ft 282 kts 89°
2026-05-03 22:11 21.22125 -87.60089 14198 ft 281 kts 89°
2026-05-03 22:12 21.22152 -87.58003 13820 ft 277 kts 89°
2026-05-03 22:12 21.22177 -87.55957 13443 ft 272 kts 89°
2026-05-03 22:12 21.22201 -87.53949 13068 ft 268 kts 89°
2026-05-03 22:12 21.22223 -87.51960 12691 ft 265 kts 89°
2026-05-03 22:13 21.22245 -87.50028 12320 ft 261 kts 89°
2026-05-03 22:13 21.22266 -87.48094 11943 ft 258 kts 89°
2026-05-03 22:13 21.22287 -87.46185 11567 ft 255 kts 89°
2026-05-03 22:13 21.22307 -87.44297 11191 ft 252 kts 89°
2026-05-03 22:14 21.22327 -87.42436 10816 ft 249 kts 89°
2026-05-03 22:14 21.22346 -87.40580 10440 ft 248 kts 89°
2026-05-03 22:14 21.22366 -87.38734 10064 ft 247 kts 89°
2026-05-03 22:14 21.22385 -87.36901 9689 ft 245 kts 89°
2026-05-03 22:15 21.22403 -87.35083 9314 ft 244 kts 90°
2026-05-03 22:15 21.22352 -87.33271 8938 ft 243 kts 93°
2026-05-03 22:15 21.22238 -87.31472 8563 ft 241 kts 94°
2026-05-03 22:15 21.22116 -87.29708 8192 ft 240 kts 94°
2026-05-03 22:16 21.21998 -87.27926 7815 ft 238 kts 94°
2026-05-03 22:16 21.21879 -87.26159 7440 ft 237 kts 95°
2026-05-03 22:16 21.21545 -87.24444 7063 ft 236 kts 107°
2026-05-03 22:16 21.20966 -87.22806 6689 ft 235 kts 112°
2026-05-03 22:17 21.20310 -87.21203 6312 ft 233 kts 114°
2026-05-03 22:17 21.19652 -87.19648 5941 ft 231 kts 114°
2026-05-03 22:17 21.18988 -87.18081 5598 ft 225 kts 114°
2026-05-03 22:17 21.18363 -87.16605 5298 ft 217 kts 114°
2026-05-03 22:18 21.17760 -87.15180 5099 ft 200 kts 114°
2026-05-03 22:18 21.17206 -87.13873 4940 ft 188 kts 114°
2026-05-03 22:18 21.16669 -87.12605 4650 ft 186 kts 114°
2026-05-03 22:18 21.16141 -87.11357 4353 ft 185 kts 114°
2026-05-03 22:19 21.15607 -87.10096 4051 ft 185 kts 114°
2026-05-03 22:19 21.15076 -87.08843 3750 ft 184 kts 114°
2026-05-03 22:19 21.14549 -87.07598 3450 ft 184 kts 114°
2026-05-03 22:19 21.14028 -87.06368 3154 ft 183 kts 114°
2026-05-03 22:20 21.13501 -87.05126 2854 ft 183 kts 114°
2026-05-03 22:20 21.12977 -87.03889 2554 ft 183 kts 114°
2026-05-03 22:20 21.12453 -87.02652 2290 ft 180 kts 114°
2026-05-03 22:20 21.11941 -87.01443 2063 ft 177 kts 114°
2026-05-03 22:21 21.11434 -87.00263 1973 ft 171 kts 116°
2026-05-03 22:21 21.10834 -86.99170 1975 ft 170 kts 122°
2026-05-03 22:21 21.10175 -86.98113 1992 ft 172 kts 124°
2026-05-03 22:21 21.09500 -86.97035 1878 ft 177 kts 124°
2026-05-03 22:22 21.08807 -86.95930 1615 ft 178 kts 123°
2026-05-03 22:22 21.08133 -86.94853 1353 ft 173 kts 123°
2026-05-03 22:22 21.07487 -86.93820 1122 ft 162 kts 123°
2026-05-03 22:22 21.06886 -86.92862 913 ft 148 kts 123°
2026-05-03 22:23 21.06328 -86.91962 684 ft 141 kts 122°
2026-05-03 22:23 21.05834 -86.91146 497 ft 137 kts 123°
2026-05-03 22:23 21.05449 -86.90548 383 ft 136 kts 123°
2026-05-03 22:23 21.04911 -86.89697 203 ft 137 kts 123°
2026-05-03 22:24 21.04387 -86.88867 52 ft 129 kts 123°
2026-05-03 22:24 21.03942 -86.88168 28 ft 87 kts 119°
2026-05-03 22:24 21.03728 -86.87816 28 ft 38 kts 125°
2026-05-03 22:24 21.03583 -86.87592 28 ft 36 kts 122°
2026-05-03 22:25 21.03488 -86.87429 28 ft 4 kts 95°
2026-05-03 22:25 21.03522 -86.87415 28 ft 5 kts 310°
2026-05-03 22:25 21.03553 -86.87450 28 ft 10 kts 328°
2026-05-03 22:25 21.03581 -86.87465 28 ft 0 kts 336°
2026-05-03 22:27 21.03582 -86.87465 28 ft 0 kts 336°
2026-05-03 22:27 21.03613 -86.87479 28 ft 12 kts 338°
2026-05-03 22:27 21.03697 -86.87518 28 ft 10 kts 334°
2026-05-03 22:28 21.03755 -86.87548 28 ft 5 kts 337°
2026-05-03 22:28 21.03801 -86.87591 28 ft 13 kts 304°
2026-05-03 22:28 21.03851 -86.87671 28 ft 15 kts 304°
2026-05-03 22:28 21.03900 -86.87708 28 ft 9 kts
2026-05-03 22:29 21.03935 -86.87687 28 ft 0 kts 42°